Location: North Evanston
(42.0634°N, 87.6976°W)
Time: 14:13:07
(UTC+00:00)

Vanguard 2 Rocket - Pass Details

Date: 14 May 2026
Orbit: 553 x 3286 km, 32.9° (Epoch: 6 June)

Event Time Altitude Azimuth Distance (km) Brightness Sun altitude
Rises 18:35:53 0° 255° (WSW) 5,822 11.3 64.5°
Reaches altitude 10° 18:39:14 10° 252° (WSW) 5,112 11.2 64.2°
Maximum altitude 18:55:20 64° 176° (S) 3,393 11.6 62.6°
Drops below altitude 10° 19:14:58 10° 102° (ESE) 6,080 11.0 60.2°
Sets 19:19:25 0° 99° (E) 6,931 11.2 59.6°
